This is the latest recevied weather packets stored in our database for station/object SV2RIM-2. If no packets are shown the sender has not sent any weather packets the latest 10 day(s).
| Time | Temp. | Humidity | Pressure | Rain* | Wind** | Luminosity | Snow |
|---|---|---|---|---|---|---|---|
| 1787669419 | 36.67° C | 32% | 1013.2 hPa | - | - | - | - |
| 1787668819 | 36.67° C | 32% | 1013.1 hPa | - | - | - | - |
| 1787668219 | 36.67° C | 33% | 1013.2 hPa | - | - | - | - |
| 1787667619 | 36.67° C | 34% | 1013.3 hPa | - | - | - | - |
| 1787667019 | 36.11° C | 35% | 1013.3 hPa | - | - | - | - |
| 1787666419 | 36.67° C | 35% | 1013.3 hPa | - | - | - | - |
| 1787665819 | 37.22° C | 35% | 1013.4 hPa | - | - | - | - |
| 1787665219 | 37.78° C | 35% | 1013.3 hPa | - | - | - | - |
| 1787664619 | 37.78° C | 35% | 1013.3 hPa | - | - | - | - |
| 1787664019 | 37.22° C | 35% | 1013.3 hPa | - | - | - | - |
| 1787663419 | 36.67° C | 36% | 1013.4 hPa | - | - | - | - |
| 1787662819 | 37.22° C | 36% | 1013.5 hPa | - | - | - | - |
| 1787662219 | 36.11° C | 37% | 1013.6 hPa | - | - | - | - |
| 1787661619 | 36.11° C | 38% | 1013.7 hPa | - | - | - | - |
| 1787661019 | 36.11° C | 38% | 1013.8 hPa | - | - | - | - |
| 1787660419 | 36.11° C | 39% | 1013.9 hPa | - | - | - | - |
| 1787659819 | 36.11° C | 39% | 1014.1 hPa | - | - | - | - |
| 1787659219 | 36.11° C | 40% | 1014.3 hPa | - | - | - | - |
| 1787658619 | 36.11° C | 40% | 1014.4 hPa | - | - | - | - |
| 1787658019 | 35° C | 41% | 1014.5 hPa | - | - | - | - |
| 1787657419 | 35.56° C | 40% | 1014.6 hPa | - | - | - | - |
| 1787656819 | 35.56° C | 41% | 1014.8 hPa | - | - | - | - |
| 1787656219 | 35° C | 41% | 1015 hPa | - | - | - | - |
| 1787655619 | 34.44° C | 41% | 1015.1 hPa | - | - | - | - |
| 1787655019 | 34.44° C | 40% | 1015.2 hPa | - | - | - | - |
* Rain since midnight (hover to see other rain measurements)
** Current wind speed in m/s (hover to see current wind gust speed)